Tracking 29892 objects as of 21-Nov-2024
HD Live streaming from Space Station
objects crossing your sky now

CZ-6A R/B

Track CZ-6A R/B now!
10-day predictions


NORAD ID: 52152
Int'l Code: 2022-031C
Perigee: 549.2 km
Apogee: 575.4 km
Inclination: 97.8 °
Period: 95.8 minutes
Semi major axis: 6933 km
RCS: Unknown
Launch date: March 29, 2022
Source: People's Republic of China (PRC)
Launch site: Taiyaun Space Center, China (TSC)

Note: This is a ROCKET BODY
Your satellite tracking list
Your tracking list is empty




NASA's NSSDC Master Catalog

Two Line Element Set (TLE):
1 52152U 22031C   24325.50932441  .00004172  00000-0  30695-3 0  9997
2 52152  97.8287 152.1824 0018923 357.6426   2.4707 15.03815014144958
Source of the keplerian elements: AFSPC